Regional Weather Roundup
Issued by NWS

Home | Current Version | Previous Version | Text Only | Print | Product List | Glossary On
Versions: 1 2 3 4 5 6 7 8 9 10 11 12 13 14 15 16 17 18 19 20 21 22 23 24 25 26 27 28 29 30 31 32 33 34 35 36 37 38 39 40 41 42 43 44 45 46 47 48 49 50
000
ASUS45 KCYS 251710
RWRWY

WYOMING REGIONAL WEATHER ROUNDUP
NATIONAL WEATHER SERVICE CHEYENNE WY
1100 AM MDT MON MAY 25 2015

NOTE:  "FAIR" INDICATES FEW OR NO CLOUDS BELOW 12,000 FEET
WITH NO SIGNIFICANT WEATHER AND/OR OBSTRUCTIONS TO VISIBILITY.

WYZ001-251800-
YELLOWSTONE NATIONAL PARK

CITY           SKY/WX    TMP DP  RH WIND       PRES   REMARKS
LK YELLOWSTONE   N/A     43  34  70 VRB3      30.05R
W YELLOWSTONE  NOT AVBL

$$
WYZ002>013-054>058-071-098>099-251800-
NORTHERN WYOMING

CITY           SKY/WX    TMP DP  RH WIND       PRES   REMARKS
JACKSON        CLOUDY    52  41  66 S5        29.99S
CODY           CLOUDY    54  45  71 N3        29.96S
GREYBULL       CLOUDY    58  47  66 W3        29.92S
WORLAND        CLOUDY    55  49  80 NE5       29.93R
SHERIDAN       CLOUDY    55  49  80 N6        29.94R
BUFFALO        LGT RAIN  50  47  89 N8        29.95S
GILLETTE       CLOUDY    52  50  93 N14       29.91R
HULETT         LGT RAIN  52  50  93 N6        29.90S
NEWCASTLE      CLOUDY    57  45  62 NW13      29.86S

$$
WYZ014>020-022>026-101>103-251800-
CENTRAL WYOMING

CITY           SKY/WX    TMP DP  RH WIND       PRES   REMARKS
BIG PINEY      PTSUNNY   52  39  61 CALM      30.01S
PINEDALE       FAIR      50  37  62 CALM      30.02F
DUBOIS         CLOUDY    48  36  61 SE5       29.99S
LANDER         PTSUNNY   52  44  74 SE5       29.97R
RIVERTON       CLOUDY    55  43  63 N5        29.98S
CASPER         CLOUDY    51  44  77 N10       29.94S
DOUGLAS        CLOUDY    53  49  86 W13       29.91F

$$
WYZ021-027>030-104>119-251800-
SOUTHERN WYOMING

CITY           SKY/WX    TMP DP  RH WIND       PRES   REMARKS
EVANSTON       CLOUDY    49  43  80 VRB6      30.03S
KEMMERER       LGT RAIN  46  41  81 W9        30.03S
FORT BRIDGER   CLOUDY    48  48 100 W3        30.06S
ROCK SPRINGS   CLOUDY    48  40  73 W6        30.02S
DIXON          CLOUDY    49  42  74 W5        30.04S
RAWLINS        CLOUDY    48  40  73 W12       30.00R
SARATOGA       CLOUDY    48  39  71 W15G21    30.01R
LARAMIE        CLOUDY    47  35  63 W7        29.96S
CHEYENNE       CLOUDY    51  41  68 NW14      29.93R
TORRINGTON     LGT RAIN  52  50  93 W9        29.87R FOG
PINE BLUFFS    DRIZZLE   46  45  93 NW14G22   29.92R

$$


USA.gov is the U.S. government's official web portal to all federal, state and local government web resources and services.